Weather History for Laconia, NH

Change the Weather History Date:

Tuesday, December 11, 2012

  Actual Average Record
Temperature  
Mean Temperature 36 °F -  
Max Temperature 42 °F 37 °F 53 °F (1987)
Min Temperature 30 °F 20 °F 6 °F (1988)
Degree Days  
Heating Degree Days 29    
Moisture  
Dew Point 27 °F    
Average Humidity 68    
Maximum Humidity 87    
Minimum Humidity 56    
Precipitation  
Precipitation 0.00 in - - ()
Sea Level Pressure  
Sea Level Pressure 29.81 in    
Wind  
Wind Speed 7 mph (West)    
Max Wind Speed 13 mph    
Max Gust Speed 21 mph    
Visibility 10 miles    
Events      
Averages and records for this station are not official NWS values.
T = Trace of Precipitation, MM = Missing Value Source: NWS Daily Summary

Daily Weather History Graph

Daily Weather History Graph

Search for Another Location

Airport:

Trip Planner

Search our weather history database for the weather conditions in past years. The results will help you decide how hot, cold, wet, or windy it might be!

Date:

Astronomy

Dec. 11, 2012 Rise Set
Actual Time 7:09 AM EST 4:09 PM EST
Civil Twilight 6:36 AM EST 4:41 PM EST
Nautical Twilight 6:00 AM EST 5:17 PM EST
Astronomical Twilight 5:25 AM EST 5:52 PM EST
Moon 4:58 AM EST (12/11) 2:46 PM EST (12/11)
Length of Visible Light 10h 05m
Length of Day
8h 59m
Waning Crescent, 4% of the Moon is Illuminated
Dec 11
Waning Crescent
Dec 13
New
Dec 20
First Quarter
Dec 28
Full
Jan 4
Last Quarter

Hourly Weather History & Observations

Time (EST) Temp. Windchill Dew Point Humidity Pressure Visibility Wind Dir Wind Speed Gust Speed Precip Events Conditions
12:15 AM 42.8 °F 40.1 °F 39.2 °F 87% 29.53 in 10.0 mi West 4.6 mph - N/A   Overcast
12:35 AM 42.8 °F 40.1 °F 37.4 °F 81% 29.52 in 10.0 mi West 4.6 mph - N/A   Overcast
12:55 AM 42.8 °F 38.0 °F 37.4 °F 81% 29.53 in 10.0 mi West 8.1 mph - N/A   Overcast
1:15 AM 42.8 °F 37.0 °F 37.4 °F 81% 29.54 in 10.0 mi West 10.4 mph - N/A   Overcast
1:35 AM 42.8 °F 37.5 °F 35.6 °F 76% 29.56 in 10.0 mi WSW 9.2 mph - N/A   Overcast
1:55 AM 42.8 °F 38.0 °F 35.6 °F 76% 29.56 in 10.0 mi West 8.1 mph - N/A   Overcast
2:15 AM 42.8 °F 38.6 °F 35.6 °F 76% 29.56 in 10.0 mi WSW 6.9 mph - N/A   Scattered Clouds
2:35 AM 41.0 °F 38.0 °F 35.6 °F 81% 29.57 in 10.0 mi SW 4.6 mph - N/A   Scattered Clouds
2:55 AM 42.8 °F 38.6 °F 35.6 °F 76% 29.59 in 10.0 mi WSW 6.9 mph - N/A   Overcast
3:15 AM 41.0 °F 33.9 °F 33.8 °F 76% 29.60 in 10.0 mi WSW 12.7 mph 17.3 mph N/A   Overcast
3:55 AM 41.0 °F 37.1 °F 33.8 °F 76% 29.61 in 10.0 mi WSW 5.8 mph - N/A   Overcast
4:15 AM 41.0 °F 36.4 °F 33.8 °F 76% 29.61 in 10.0 mi WSW 6.9 mph - N/A   Overcast
4:35 AM 41.0 °F 36.4 °F 33.8 °F 76% 29.63 in 10.0 mi WSW 6.9 mph - N/A   Overcast
4:55 AM 41.0 °F 34.7 °F 33.8 °F 76% 29.65 in 10.0 mi WSW 10.4 mph - N/A   Overcast
5:15 AM 41.0 °F 35.8 °F 33.8 °F 76% 29.66 in 10.0 mi West 8.1 mph - N/A   Overcast
5:35 AM 39.2 °F 33.6 °F 33.8 °F 81% 29.66 in 10.0 mi West 8.1 mph - N/A   Overcast
5:55 AM 39.2 °F 35.9 °F 32.0 °F 75% 29.66 in 10.0 mi West 4.6 mph - N/A   Mostly Cloudy
6:35 AM 39.2 °F 33.6 °F 32.0 °F 75% 29.68 in 10.0 mi WSW 8.1 mph - N/A   Overcast
7:15 AM 39.2 °F 35.0 °F 32.0 °F 75% 29.68 in 10.0 mi WSW 5.8 mph - N/A   Overcast
8:35 AM 39.2 °F 35.9 °F 30.2 °F 70% 29.74 in 10.0 mi West 4.6 mph - N/A   Overcast
9:15 AM 39.2 °F 34.2 °F 30.2 °F 70% 29.78 in 10.0 mi WNW 6.9 mph - N/A   Overcast
9:35 AM 39.2 °F 32.0 °F 30.2 °F 70% 29.79 in 10.0 mi WNW 11.5 mph 20.7 mph N/A   Overcast
9:55 AM 37.4 °F 29.8 °F 28.4 °F 70% 29.80 in 10.0 mi West 11.5 mph 19.6 mph N/A   Mostly Cloudy
10:15 AM 37.4 °F 30.8 °F 28.4 °F 70% 29.82 in 10.0 mi WNW 9.2 mph - N/A   Mostly Cloudy
10:35 AM 37.4 °F 32.1 °F 26.6 °F 65% 29.81 in 10.0 mi West 6.9 mph - N/A   Overcast
11:15 AM 37.4 °F 29.8 °F 26.6 °F 65% 29.82 in 10.0 mi WNW 11.5 mph 17.3 mph N/A   Overcast
11:55 AM 37.4 °F 32.1 °F 26.6 °F 65% 29.83 in 10.0 mi WNW 6.9 mph - N/A   Overcast
12:15 PM 37.4 °F 31.4 °F 26.6 °F 65% 29.84 in 10.0 mi WNW 8.1 mph - N/A   Overcast
12:35 PM 35.6 °F 27.5 °F 24.8 °F 65% 29.84 in 10.0 mi WNW 11.5 mph - N/A   Overcast
12:55 PM 35.6 °F 28.0 °F 24.8 °F 65% 29.84 in 10.0 mi WNW 10.4 mph - N/A   Overcast
1:15 PM 35.6 °F 28.6 °F 24.8 °F 65% 29.85 in 10.0 mi WNW 9.2 mph - N/A   Overcast
1:35 PM 35.6 °F 29.9 °F 24.8 °F 65% 29.85 in 10.0 mi WNW 6.9 mph - N/A   Overcast
1:55 PM 37.4 °F 29.8 °F 24.8 °F 60% 29.86 in 10.0 mi West 11.5 mph 17.3 mph N/A   Overcast
2:15 PM 37.4 °F 31.4 °F 23.0 °F 56% 29.88 in 10.0 mi NW 8.1 mph - N/A   Overcast
2:35 PM 35.6 °F 29.9 °F 21.2 °F 56% 29.89 in 10.0 mi WNW 6.9 mph - N/A   Overcast
2:55 PM 35.6 °F 27.5 °F 21.2 °F 56% 29.90 in 10.0 mi West 11.5 mph 16.1 mph N/A   Overcast
3:15 PM 35.6 °F 29.2 °F 21.2 °F 56% 29.91 in 10.0 mi WNW 8.1 mph 18.4 mph N/A   Mostly Cloudy
3:35 PM 35.6 °F 29.2 °F 21.2 °F 56% 29.91 in 10.0 mi West 8.1 mph - N/A   Mostly Cloudy
3:55 PM 33.8 °F 27.0 °F 21.2 °F 60% 29.93 in 10.0 mi WNW 8.1 mph 17.3 mph N/A   Mostly Cloudy
4:55 PM 33.8 °F 29.6 °F 21.2 °F 60% 29.96 in 10.0 mi WSW 4.6 mph - N/A   Mostly Cloudy
5:55 PM 33.8 °F 30.8 °F 19.4 °F 56% 29.98 in 10.0 mi West 3.5 mph - N/A   Overcast
6:15 PM 32.0 °F 26.4 °F 19.4 °F 60% 29.99 in 10.0 mi West 5.8 mph - N/A   Mostly Cloudy
6:35 PM 32.0 °F 25.6 °F 19.4 °F 60% 29.99 in 10.0 mi WSW 6.9 mph - N/A   Partly Cloudy
6:55 PM 32.0 °F 26.4 °F 19.4 °F 60% 30.01 in 10.0 mi WSW 5.8 mph - N/A   Scattered Clouds
7:15 PM 32.0 °F 24.8 °F 19.4 °F 60% 30.02 in 10.0 mi WSW 8.1 mph - N/A   Overcast
7:55 PM 32.0 °F 25.6 °F 19.4 °F 60% 30.03 in 10.0 mi West 6.9 mph - N/A   Overcast
8:15 PM 32.0 °F 25.6 °F 19.4 °F 60% 30.03 in 10.0 mi West 6.9 mph - N/A   Overcast
8:35 PM 32.0 °F 26.4 °F 19.4 °F 60% 30.04 in 10.0 mi West 5.8 mph - N/A   Overcast
8:55 PM 32.0 °F 25.6 °F 19.4 °F 60% 30.03 in 10.0 mi WNW 6.9 mph - N/A   Mostly Cloudy
9:35 PM 30.2 °F 20.8 °F 19.4 °F 64% 30.05 in 10.0 mi West 11.5 mph - N/A   Partly Cloudy
9:55 PM 30.2 °F 23.4 °F 19.4 °F 64% 30.05 in 10.0 mi West 6.9 mph - N/A   Clear
10:15 PM 30.2 °F 20.2 °F 19.4 °F 64% 30.06 in 10.0 mi West 12.7 mph 18.4 mph N/A   Clear
10:35 PM 30.2 °F 22.6 °F 17.6 °F 60% 30.08 in 10.0 mi West 8.1 mph - N/A   Partly Cloudy
10:55 PM 30.2 °F 21.3 °F 17.6 °F 60% 30.08 in 10.0 mi West 10.4 mph - N/A   Scattered Clouds
11:55 PM 30.2 °F 22.6 °F 17.6 °F 60% 30.09 in 10.0 mi West 8.1 mph 16.1 mph N/A   Clear